Regional Weather Roundup
Issued by NWS

Home | Current Version | Previous Version | Text Only | Print | Product List | Glossary On
Versions: 1 2 3 4 5 6 7 8 9 10 11 12 13 14 15 16 17 18 19 20 21 22 23 24 25 26 27 28 29 30 31 32 33 34 35 36 37 38 39 40 41 42 43 44 45 46 47 48 49 50
000
ASUS43 KMKX 030259
RWRWI

WISCONSIN REGIONAL WEATHER ROUNDUP
NATIONAL WEATHER SERVICE MILWAUKEE/SULLIVAN WI
900 PM CST MON MAR 02 2015

NOTE: "FAIR" INDICATES FEW OR NO CLOUDS BELOW 12,000 FEET WITH NO
SIGNIFICANT WEATHER AND/OR OBSTRUCTIONS TO VISIBILITY.

WIZ001-002-006>008-014>016-023>028-030400-
NORTHWEST WISCONSIN

CITY           SKY/WX    TMP DP  RH WIND       PRES   REMARKS
SUPERIOR ARPT  CLOUDY    22   7  51 S8        30.13F WCI  12
ASHLAND        PTCLDY    17   0  47 S6        30.15F WCI   9
HAYWARD        CLOUDY    20   5  52 S7        30.14F WCI  11
SIREN          MOCLDY    22   6  51 S9        30.15F WCI  11
CUMBERLAND     CLOUDY    21   9  58 S7        30.15S WCI  13
RICE LAKE      CLOUDY    22   7  52 S7        30.18R WCI  14
CHETEK         CLOUDY    22   8  54 S6        30.17F WCI  14
LADYSMITH      MOCLDY    21   6  53 S6        30.17F WCI  13
EAU CLAIRE     NOT AVBL
MENOMONIE      CLOUDY    23   8  51 S9        30.18F WCI  13
NEW RICHMOND   CLOUDY    21   9  59 S12       30.16F WCI   9
OSCEOLA        CLOUDY    23  10  59 S8        30.18F WCI  13
$$

WIZ003>005-009-010-017-018-030400-
NORTH CENTRAL WISCONSIN

CITY           SKY/WX    TMP DP  RH WIND       PRES   REMARKS
MANITOWISH WTR PTCLDY    16   1  51 S7        30.12F WCI   6
ARBOR VITAE    PTCLDY    17   2  53 S3        30.13F
WOODRUFF       PTCLDY    17   2  53 S3        30.13F
RHINELANDER    PTCLDY    17   2  51 S3        30.15F
EAGLE RIVER    PTCLDY    16   1  53 CALM      30.13F
LAND O LAKES   PTCLDY    16   3  55 S3        30.13F
PHILLIPS       MOCLDY    16   4  58 S5        30.14S WCI   9
TOMAHAWK       MOCLDY    15   3  59 CALM      30.16F
MEDFORD        MOCLDY    17   7  64 S7        30.15F WCI   7
MERRILL        MOCLDY    17   5  58 CALM      30.17F
$$

WIZ029-030-035-036-043>047-030400-
CENTRAL WISCONSIN

CITY           SKY/WX    TMP DP  RH WIND       PRES   REMARKS
WAUSAU         MOCLDY    21   5  50 S6        30.17F WCI  13
MOSINEE        CLEAR     19   9  63 S5        30.19F WCI  13
MARSHFIELD     CLOUDY    24   7  48 S9        30.18F WCI  14
STEVENS POINT  CLOUDY    23   8  52 S6        30.22F WCI  15
WAUPACA        CLOUDY    27  13  55 S8        30.25F WCI  18
WAUTOMA        NOT AVBL
WISC RAPIDS    CLOUDY    24   5  44 S7        30.22F WCI  16
CAMP DOUGLAS   NOT AVBL
$$

WIZ011>013-019>022-031-037>040-048>050-030400-
NORTHEAST WISCONSIN

CITY           SKY/WX    TMP DP  RH WIND       PRES   REMARKS
ANTIGO         MOCLDY    15   3  58 S5        30.16F WCI   8
SHAWANO        MOCLDY    24  11  58 S3        30.24F
OCONTO         MOCLDY    20  11  68 S3        30.27F
STURGEON BAY   MOCLDY    21  12  68 S7        30.28F WCI  13
GREEN BAY      CLOUDY    23  14  68 S6        30.26F WCI  16
MANITOWOC      NOT AVBL
APPLETON       MOCLDY    23  10  58 SW7       30.26F WCI  15
CLINTONVILLE   CLOUDY    25  14  63 S8        30.24F WCI  16
OSHKOSH        CLOUDY    24  13  62 S9        30.26F WCI  14
$$

WIZ032>034-041-042-053>061-030400-
SOUTHWEST WISCONSIN

CITY           SKY/WX    TMP DP  RH WIND       PRES   REMARKS
LA CROSSE      CLOUDY    26  13  57 S10       30.21F WCI  16
SPARTA         CLOUDY    26  14  61 S7        30.23F WCI  18
VIROQUA        CLOUDY    23  15  70 S10       30.20F WCI  12
BOSCOBEL       CLOUDY    25  14  63 CALM      30.25F
PRAIRIE DU CHI CLOUDY    26  14  61 SE5       30.26F WCI  20
PLATTEVILLE    CLOUDY    24  18  76 SE7       30.25F WCI  16
$$

WIZ056-057-062-063-064-067-068-030400-
SOUTH CENTRAL WISCONSIN

CITY           SKY/WX    TMP DP  RH WIND       PRES   REMARKS
REEDSBURG      CLOUDY    24  13  64 S7        30.25F WCI  16
BARABOO/DELLS  CLOUDY    24  11  58 S7        30.25F WCI  16
LONE ROCK      NOT AVBL
MINERAL POINT  CLOUDY    27  18  69 S7        30.24F WCI  19
MADISON        CLOUDY    25  13  60 S7        30.28F WCI  17
MIDDLETON      CLOUDY    26  14  60 S8        30.28F WCI  17
WATERTOWN      CLOUDY    24  14  65 S5        30.29S WCI  18
MONROE         CLOUDY    25  19  80 S6        30.26F WCI  18
JANESVILLE     CLOUDY    27  18  69 S5        30.29F WCI  21
$$

WIZ051-052-058>065-066-070>072-030400-
SOUTHEAST WISCONSIN

CITY           SKY/WX    TMP DP  RH WIND       PRES   REMARKS
MILWAUKEE      CLOUDY    25  15  66 S6        30.31F WCI  18
WAUKESHA       CLOUDY    21  14  73 S7        30.30F WCI  13
MILWAUKEE/TIMM CLOUDY    25  16  68 S7        30.31F WCI  17
RACINE         CLOUDY    27  19  72 S7        30.32F WCI  19
BURLINGTON     MOCLDY    23  15  73 S5        30.31S WCI  17
KENOSHA        CLOUDY    26  19  74 S7        30.31F WCI  18
FOND DU LAC    CLOUDY    25  11  55 S8        30.27F WCI  16
SHEBOYGAN      CLOUDY    25  16  68 S7        30.27F WCI  17
WEST BEND      CLOUDY    27  10  50 S6        30.28F WCI  20
JUNEAU         CLOUDY    24  12  61 S9        30.30S WCI  14
$$

LSZ147-162-030400-
LAKE SUPERIOR

STATION/POSITION TIME  TEMP    WIND        PRES    WAVE
                       AIR SEA DIR/SP/G            HT/PER
                 (UTC) (F)     (DEG/KT/KT) (MB)    (FT/S)
DEVILS ISLAND    0200   24     210/ 10/ 12 1022.0F
PORT WING        0200   22     180/  5/ 16 1021.0F
SAXON HARBOR     0200   24      CALM  /  6 1021.7F
$$

LMZ867-665-643>646-030400-
LAKE MICHIGAN

STATION/POSITION TIME  TEMP    WIND        PRES    WAVE
                       AIR SEA DIR/SP/G            HT/PER
                 (UTC) (F)     (DEG/KT/KT) (MB)    (FT/S)
NORTHPORT PIER   0201   21     180/  1/  7 1025.4F
SISTER BAY       0213   20     160/  6/  8   N/A
KEWAUNEE LAKESHO 0200   25     210/  9/ 13 1025.2F
SHEBOYGAN LAKESH 0200   27     180/ 16/ 17 1027.3F
PORT WASHINGTON  0240   27     200/  8/ 13 1026.8F
MILWAUKEE LAKESH 0200   26     200/  9/ 10   N/A
KENOSHA   LAKESH 0200   27     170/ 13/ 15 1026.8F
$$

TC  - TEMPERATURE IN CELSIUS
VSB - VISIBILITY IN STATUTE MILES
WCI - WIND CHILL INDEX
HX  - HEAT INDEX




USA.gov is the U.S. government's official web portal to all federal, state and local government web resources and services.